Everett, WA

12:55 PM PST on December 05, 2019 (GMT -0800)
Snohomish County

Weather History for KPAE - July, 2019

Change the Weather History Date:

Saturday, July 27, 2019

  Actual Average Record
Temperature  
Mean Temperature 64 °F -  
Max Temperature 69 °F 74 °F 89 °F (1998)
Min Temperature 59 °F 54 °F 46 °F (1992)
Degree Days  
Heating Degree Days 1    
Growing Degree Days 14 (Base 50)    
Moisture  
Dew Point 57 °F    
Average Humidity 82    
Maximum Humidity 96    
Minimum Humidity 54    
Precipitation  
Precipitation 0.10 in - - ()
Sea Level Pressure  
Sea Level Pressure 30.20 in    
Wind  
Wind Speed 8 mph (North)    
Max Wind Speed 14 mph    
Max Gust Speed -    
Visibility 6 miles    
Events Rain    
Averages and records for this station are not official NWS values.
T = Trace of Precipitation, MM = Missing Value Source: NWS Daily Summary

Daily Weather History Graph

Daily Weather History Graph

Search for Another Location

Airport or City:

Astronomy

Jul. 27, 2019 Rise Set
Actual Time 5:39 AM PDT 8:51 PM PDT
Civil Twilight 5:01 AM PDT 9:28 PM PDT
Nautical Twilight 4:13 AM PDT 10:16 PM PDT
Astronomical Twilight 3:11 AM PDT 11:17 PM PDT
Moon 1:32 AM PDT (7/27) 4:48 PM PDT (7/27)
Length of Visible Light 16h 26m
Length of Day
15h 12m
Waning Crescent, 23% of the Moon is Illuminated
Jul 27
Waning Crescent
Jul 31
New
Aug 7
First Quarter
Aug 15
Full
Aug 23
Last Quarter

Hourly Weather History & Observations

Time (PDT) Temp. Dew Point Humidity Pressure Visibility Wind Dir Wind Speed Gust Speed Precip Events Conditions
12:53 AM 64.9 °F 57.9 °F 78% 30.09 in 10.0 mi SSE 9.2 mph - N/A   Mostly Cloudy
1:53 AM 64.9 °F 57.9 °F 78% 30.09 in 10.0 mi South 13.8 mph - N/A   Overcast
2:53 AM 64.9 °F 57.9 °F 78% 30.09 in 10.0 mi South 13.8 mph - N/A   Overcast
3:53 AM 64.9 °F 57.9 °F 78% 30.11 in 10.0 mi South 13.8 mph - N/A   Overcast
4:48 AM 60.8 °F 57.2 °F 88% 30.14 in 4.0 mi WNW 5.8 mph - 0.01 in Rain Light Rain
4:53 AM 61.0 °F 59.0 °F 93% 30.14 in 4.0 mi West 5.8 mph - 0.01 in Rain Light Rain
5:01 AM 61.0 °F 59.0 °F 93% 30.15 in 4.0 mi Variable 6.9 mph - 0.00 in Rain Light Rain
5:19 AM 60.1 °F 57.9 °F 93% 30.15 in 2.5 mi North 6.9 mph - 0.01 in Rain Light Rain
5:53 AM 59.0 °F 57.9 °F 96% 30.16 in 2.5 mi Variable 3.5 mph - 0.03 in Rain Light Rain
6:06 AM 59.0 °F 57.9 °F 96% 30.17 in 1.5 mi North 5.8 mph - 0.01 in Rain Light Rain
6:15 AM 59.0 °F 57.9 °F 96% 30.17 in 3.0 mi North 4.6 mph - 0.01 in Rain Light Rain
6:23 AM 59.0 °F 57.9 °F 96% 30.17 in 4.0 mi NNW 4.6 mph - 0.01 in Rain Light Rain
6:53 AM 59.0 °F 57.9 °F 96% 30.18 in 3.0 mi North 4.6 mph - 0.01 in   Overcast
7:53 AM 60.1 °F 57.9 °F 93% 30.20 in 3.0 mi North 5.8 mph - 0.00 in Rain Light Rain
7:56 AM 59.0 °F 57.9 °F 96% 30.21 in 1.8 mi North 4.6 mph - 0.01 in Rain Light Rain
8:09 AM 59.0 °F 57.9 °F 96% 30.22 in 2.0 mi North 4.6 mph - 0.02 in Rain Light Rain
8:53 AM 59.0 °F 57.9 °F 96% 30.24 in 2.0 mi Variable 3.5 mph - 0.05 in Rain Light Rain
9:26 AM 60.1 °F 57.0 °F 90% 30.25 in 5.0 mi NNE 3.5 mph - 0.00 in Rain Light Rain
9:53 AM 61.0 °F 57.0 °F 87% 30.25 in 10.0 mi NNE 3.5 mph - 0.00 in   Overcast
10:53 AM 62.1 °F 55.9 °F 80% 30.26 in 10.0 mi NNE 5.8 mph - N/A   Overcast
11:53 AM 64.0 °F 57.0 °F 78% 30.27 in 10.0 mi East 5.8 mph - N/A   Overcast
12:53 PM 66.0 °F 54.0 °F 65% 30.27 in 10.0 mi NE 6.9 mph - N/A   Overcast
1:53 PM 66.9 °F 53.1 °F 61% 30.28 in 10.0 mi NNE 4.6 mph - N/A   Overcast
2:53 PM 66.0 °F 53.1 °F 63% 30.28 in 10.0 mi North 6.9 mph - N/A   Overcast
3:53 PM 69.1 °F 54.0 °F 58% 30.28 in 10.0 mi Variable 5.8 mph - N/A   Overcast
4:53 PM 66.9 °F 54.0 °F 63% 30.28 in 10.0 mi Variable 4.6 mph - N/A   Overcast
5:53 PM 69.1 °F 52.0 °F 54% 30.26 in 10.0 mi North 5.8 mph - N/A   Overcast
6:53 PM 69.1 °F 53.1 °F 57% 30.25 in 10.0 mi North 6.9 mph - N/A   Mostly Cloudy